COSMOS 1818 COOLANT, 50777

Orbit data source: Space-Track

COSMOS 1818 COOLANT, 50777 is space debris in LEO originally from a launch on Sun, 01 Feb 1987 UTC launched from the Tyuratam Missile And Space Complex (TTMTR). Debris objects in space refer to the collection of defunct objects orbiting the Earth. Examples of debris include non-operational satellites, rocket bodies, and fragments generated from explosions, collisions, or faulty payload assembly.

Loading next visibility...
Identifier
50777, 1987-011AS
Orbit
LEO
Country
Flag of CISCIS
Related business
Manufacturer
Unknown
Mission
Spacecraft
Bus & Motor
Unknown
Mass
Unknown
Launch date (UTC)
1987-02-01 (39 years ago)
Launch vehicle
Unknown
Launch site
Tyuratam Missile And Space Complex (TTMTR)
Object type
Payload
Rocket body
Debris
Shape & HBR
Unknown shape, 0.1 m
Radar Cross Section
Small (<0.1 m²)

Expand to show TLE details & history
Last TLE update: 5 days ago

TLE from 5 days ago
0 COSMOS 1818 COOLANT
1 50777U 87011AS  26168.24520412  .00000702  00000-0  25060-3 0  9991
2 50777  65.0072 153.8923 0019550 276.4988  83.3876 14.40711443108107
Epoch: 2026-06-17T05:53Z
TLE epoch observation values (Epoch: 2026-06-17T05:53:05.635Z)
Latitude
0.00003°
Longitude
160.11318°
Altitude
756.551 km
Speed
7.478 km/s
True Right ascension
10h 15m 34s
True Declination
0° 00' 00"
Sunlit
Object was in daylight at epoch
Visualization orbit readout
Latitude
Unknown
Longitude
Unknown
Altitude
Unknown
Speed
Unknown
Apparent Right ascension
Unknown
Apparent Declination
Unknown
Sunlit
N/A
Visualization observer readout
Local Sidereal Time
21:34:08
Azimuth
Unknown
Elevation
Unknown
Doppler factor
Unknown
Orbital elements
Apogee altitude
768.664 km
Perigee altitude
740.775 km
Semi-major axis
7,132.857 km
Eccentricity
0.00196
Inclination
65.0072°
RAAN
153.8923°
Arg. of periapsis
276.4988°
True anomaly
83.6102°
Mean anomaly
83.3876°
Eccentric anomaly
83.49889°
Mean motion
3.60286 °/min
Orbital period
99.92 mins
BSTAR
0.0002506
Loading maneuver chart data...
Computing Atmospheric mass density...

Documentation

Showing up to 5 results
|